Satellite: CO-58
Catalog number: 28895
Epoch time:      10287.71680889
Element set:     704
Inclination:      097.9939 deg
RA of node:       168.1150 deg
Eccentricity:    0.0016741
Arg of perigee:   270.8452 deg
Mean anomaly:     089.0876 deg
Mean motion:   14.59945709 rev/day
Decay rate:       1.62e-06 rev/day^2
Epoch rev:           26442
Checksum:              364

Satellite: FALCON
Catalog number: 30776
Epoch time:      10286.79395025
Element set:     935
Inclination:      035.4333 deg
RA of node:       044.1032 deg
Eccentricity:    0.0000184
Arg of perigee:   023.5969 deg
Mean anomaly:     336.4755 deg
Mean motion:   15.03870214 rev/day
Decay rate:       9.97e-06 rev/day^2
Epoch rev:           19792
Checksum:              305

Satellite: MAST
Catalog number: 31126
Epoch time:      10286.54938913
Element set:    0987
Inclination:      097.9243 deg
RA of node:       322.3689 deg
Eccentricity:    0.0093518
Arg of perigee:   217.7967 deg
Mean anomaly:     141.6664 deg
Mean motion:   14.53628644 rev/day
Decay rate:       1.46e-06 rev/day^2
Epoch rev:           18525
Checksum:              340

Satellite: CAPE1
Catalog number: 31130
Epoch time:      10286.57729447
Element set:    0006
Inclination:      097.9275 deg
RA of node:       319.5774 deg
Eccentricity:    0.0101658
Arg of perigee:   226.2967 deg
Mean anomaly:     132.9774 deg
Mean motion:   14.52232930 rev/day
Decay rate:       2.11e-06 rev/day^2
Epoch rev:           18484
Checksum:              309

Satellite: COMPASS
Catalog number: 32787
Epoch time:      10286.86955922
Element set:     802
Inclination:      097.8832 deg
RA of node:       349.9195 deg
Eccentricity:    0.0014572
Arg of perigee:   259.2819 deg
Mean anomaly:     100.6786 deg
Mean motion:   14.81996090 rev/day
Decay rate:       6.29e-06 rev/day^2
Epoch rev:           13307
Checksum:              347

Satellite: AAUSAT2
Catalog number: 32788
Epoch time:      10286.18579667
Element set:    0792
Inclination:      097.8822 deg
RA of node:       349.4011 deg
Eccentricity:    0.0013980
Arg of perigee:   264.1349 deg
Mean anomaly:     095.8269 deg
Mean motion:   14.82143977 rev/day
Decay rate:       2.58e-06 rev/day^2
Epoch rev:           13298
Checksum:              354

Satellite: DO-64
Catalog number: 32789
Epoch time:      10286.65339321
Element set:    0811
Inclination:      097.8891 deg
RA of node:       350.4766 deg
Eccentricity:    0.0014429
Arg of perigee:   258.6460 deg
Mean anomaly:     101.3151 deg
Mean motion:   14.82353885 rev/day
Decay rate:       7.39e-06 rev/day^2
Epoch rev:           13305
Checksum:              322

Satellite: CO-66
Catalog number: 32791
Epoch time:      10286.70688673
Element set:     794
Inclination:      097.8828 deg
RA of node:       349.7578 deg
Eccentricity:    0.0014946
Arg of perigee:   258.3523 deg
Mean anomaly:     101.5964 deg
Mean motion:   14.81761531 rev/day
Decay rate:       4.52e-06 rev/day^2
Epoch rev:           13300
Checksum:              344

Satellite: RS-30
Catalog number: 32953
Epoch time:      10287.57538513
Element set:     130
Inclination:      082.5020 deg
RA of node:       315.4484 deg
Eccentricity:    0.0018208
Arg of perigee:   198.0788 deg
Mean anomaly:     161.9653 deg
Mean motion:   12.43008361 rev/day
Decay rate:        1.0e-07 rev/day^2
Epoch rev:           10857
Checksum:              282

Satellite: TACSAT-3
Catalog number: 35001
Epoch time:      10287.89566404
Element set:     406
Inclination:      040.4535 deg
RA of node:       214.4134 deg
Eccentricity:    0.0020601
Arg of perigee:   184.7983 deg
Mean anomaly:     175.2631 deg
Mean motion:   15.43092027 rev/day
Decay rate:      8.295e-05 rev/day^2
Epoch rev:            7912
Checksum:              281

Satellite: PHARMSAT
Catalog number: 35002
Epoch time:      10286.97231995
Element set:    0381
Inclination:      040.4691 deg
RA of node:       217.6172 deg
Eccentricity:    0.0023817
Arg of perigee:   181.5895 deg
Mean anomaly:     178.4889 deg
Mean motion:   15.43453753 rev/day
Decay rate:      6.891e-05 rev/day^2
Epoch rev:           07900
Checksum:              325

Satellite: HAWKSAT1
Catalog number: 35003
Epoch time:      10286.92131691
Element set:    0415
Inclination:      040.4564 deg
RA of node:       208.6373 deg
Eccentricity:    0.0022066
Arg of perigee:   203.4124 deg
Mean anomaly:     156.5714 deg
Mean motion:   15.47926079 rev/day
Decay rate:     1.6201e-04 rev/day^2
Epoch rev:           07910
Checksum:              268

Satellite: CP6
Catalog number: 35004
Epoch time:      10286.83742501
Element set:    0409
Inclination:      040.4578 deg
RA of node:       207.0890 deg
Eccentricity:    0.0021305
Arg of perigee:   207.8393 deg
Mean anomaly:     152.1438 deg
Mean motion:   15.49297498 rev/day
Decay rate:     2.0308e-04 rev/day^2
Epoch rev:           07910
Checksum:              294

Satellite: AEROCUB3
Catalog number: 35005
Epoch time:      10287.73913098
Element set:     482
Inclination:      040.4661 deg
RA of node:       190.2329 deg
Eccentricity:    0.0024374
Arg of perigee:   241.6618 deg
Mean anomaly:     118.2247 deg
Mean motion:   15.62790341 rev/day
Decay rate:    1.07674e-03 rev/day^2
Epoch rev:            7937
Checksum:              303

